[[{"header":{"parameterUnit":"m.s-1","parameterCategory":1,"la1":30.2991,"la2":30.254,"lo1":-89.0895,"lo2":-89.0444,"dy":0.0017,"dx":0.0017,"nx":28,"ny":28,"refTime":"2023-09-30T03:00:00:Z","depth":0,"parameterNumber":2,"parameterNumberName":"U-component_of_WINDS"},"data":[0,0,0,0,0,0,0,0,0,0,0,0,0,0,0,0,0,0,0,0,0,0,0,0,0,0,0,0,0,0,0,0,0,0,0,0,0,0,0,0,0,0,0,0,0,0,0,0,0,0,0,0,0,0,0,0,0,0,-3.474,-3.474,0,-3.4723,-3.4723,-3.4723,-3.4584,-3.458,-3.4577,-3.4574,-3.4558,-3.4561,-3.4564,0,0,0,0,0,0,0,0,0,0,0,0,0,-3.4654,-3.4656,-3.474,-3.474,-3.474,-3.4723,-3.4723,-3.4723,-3.4585,-3.458,-3.4576,-3.4572,-3.4557,-3.4561,-3.4564,0,0,0,0,0,0,0,0,0,0,0,0,0,-3.467,-3.4657,-3.474,-3.4669,-3.4662,-3.4723,-3.4723,-3.4723,-3.4585,-3.458,-3.4575,-3.457,-3.4556,-3.456,-3.4565,-3.4694,0,0,-3.4577,-3.4579,0,0,0,0,0,0,0,0,-3.4669,-3.4673,-3.468,-3.4674,-3.4667,-3.465,-3.4687,-3.4713,-3.4587,-3.4615,-3.4574,-3.4568,-3.4593,-3.4594,-3.4602,-3.4693,-3.4692,-3.4578,-3.458,-3.4582,-3.4583,0,0,0,0,0,0,0,-3.4668,-3.4673,-3.4734,-3.468,-3.4672,-3.4638,-3.4634,-3.4691,-3.4633,-3.4612,-3.4602,-3.4601,-3.4589,-3.4599,-3.4601,-3.4692,-3.4578,-3.4581,-3.4584,-3.4586,-3.4888,-3.4893,0,0,0,0,0,0,-3.4677,-3.4673,-3.4734,-3.4733,-3.4655,-3.4644,-3.464,-3.4661,-3.4632,-3.4623,-3.4606,-3.4595,-3.4594,-3.4596,-3.46,-3.4749,-3.4582,-3.4586,-3.4588,-3.4882,-3.4889,-3.4895,0,0,0,0,0,0,-3.4676,-3.4684,-3.4735,-3.47,-3.4704,-3.4651,-3.4675,-3.4663,-3.4673,-3.4628,-3.4617,-3.4627,-3.459,-3.4594,-3.4671,-3.4747,-3.4588,-3.4592,-3.4876,-3.4884,-3.4892,-3.505,0,0,0,0,0,0,-3.4674,-3.4684,-3.4733,-3.4703,-3.4707,-3.4807,-3.468,-3.4667,-3.468,-3.4666,-3.4644,-3.4636,-3.4586,-3.4666,-3.4675,-3.475,-3.4595,-3.4869,-3.4879,-3.4889,-3.5038,-3.5062,-3.5084,0,0,0,0,0,-3.4671,-3.4778,-3.4736,-3.4744,-3.4766,-3.4811,-3.4814,-3.4754,-3.4687,-3.4735,-3.4706,-3.4636,-3.4737,-3.4675,-3.4685,-3.4761,-3.4864,-3.4876,-3.4888,-3.5027,-3.5057,-3.5083,0,0,0,0,0,0,-3.4819,-3.4773,-3.4725,-3.4826,-3.4824,-3.4788,-3.4847,-3.4788,-3.4806,-3.4792,-3.4717,-3.4714,-3.4802,-3.4789,-3.4721,-3.4885,-3.4788,-3.4803,-3.489,-3.4919,-3.4941,-3.4943,-3.4598,0,0,0,0,0,-3.4863,-3.4904,-3.4861,-3.4954,-3.4955,-3.4902,-3.4919,-3.4873,-3.4868,-3.4867,-3.4843,-3.4842,-3.4872,-3.4895,-3.492,-3.5034,-3.5028,-3.5092,-3.5115,-3.5134,-3.5148,-3.5208,-3.5236,-3.4936,-3.4935,-3.4935,0,0,-3.4956,-3.4935,-3.4965,-3.4983,-3.4976,-3.502,-3.4902,-3.4953,-3.4985,-3.4875,-3.4946,-3.4929,-3.4922,-3.5019,-3.506,-3.501,-3.523,-3.515,-3.5166,-3.5169,-3.5224,-3.5252,-3.5278,-3.4944,-3.4942,-3.4941,0,0,-3.5146,-3.5134,-3.521,-3.5205,-3.5195,-3.5159,-3.5177,-3.5151,-3.5135,-3.5205,-3.5123,-3.516,-3.5215,-3.5213,-3.522,-3.5409,-3.5346,-3.542,-3.554,-3.5599,-3.5623,-3.5644,-3.5712,-3.5737,-3.5434,-3.5434,-3.5434,0,-3.5262,-3.5324,-3.5257,-3.5313,-3.5324,-3.5225,-3.5301,-3.53,-3.53,-3.531,-3.5254,-3.532,-3.5309,-3.5404,-3.545,-3.5458,-3.5477,-3.5422,-3.5625,-3.5645,-3.5663,-3.5728,-3.5753,-3.5443,-3.5442,-3.5441,-3.544,0,-3.5467,-3.5512,-3.5574,-3.5576,-3.5593,-3.5659,-3.5603,-3.5628,-3.5581,-3.5551,-3.5624,-3.5606,-3.5627,-3.5645,-3.56,-3.5734,-3.5704,-3.5638,-3.5539,-3.5702,-3.5761,-3.5785,-3.5456,-3.5453,-3.545,-3.5448,0,0,-3.5752,-3.5714,-3.5738,-3.5738,-3.572,-3.5753,-3.5815,-3.5834,-3.5858,-3.5861,-3.5912,-3.596,-3.5899,-3.5906,-3.5859,-3.5911,-3.6063,-3.5838,-3.5837,-3.5882,-3.621,-3.6261,-3.6291,-3.602,-3.6024,-3.6028,-3.6211,0,-3.5935,-3.6038,-3.5979,-3.6091,-3.6132,-3.6038,-3.6092,-3.6087,-3.606,-3.6091,-3.6061,-3.6097,-3.6013,-3.6017,-3.6063,-3.6035,-3.6128,-3.602,-3.6068,-3.607,-3.6073,-3.6321,-3.6375,-3.6549,-3.6234,-3.6238,-3.624,0,-3.6163,-3.6175,-3.6292,-3.6265,-3.628,-3.6329,-3.6342,-3.6372,-3.6365,-3.6342,-3.635,-3.629,-3.635,-3.6252,-3.6333,-3.6261,-3.6277,-3.6266,-3.6271,-3.6274,-3.6166,-3.6332,-3.6602,-3.6629,-3.6276,-3.6273,-3.6271,0,-3.636,-3.6405,-3.648,-3.6483,-3.6454,-3.6491,-3.648,-3.6467,-3.6483,-3.6494,-3.6504,-3.6523,-3.6533,-3.6549,-3.6497,-3.643,-3.6585,-3.6483,-3.6569,-3.657,-3.6607,-3.6605,-3.6885,-3.6615,-3.6615,-3.6615,-3.6614,0,-3.6572,-3.6647,-3.6568,-3.6615,-3.6696,-3.6627,-3.671,-3.6689,-3.6679,-3.672,-3.664,-3.668,-3.6607,-3.6641,-3.66,-3.6674,-3.6679,-3.6663,-3.6651,-3.6671,-3.6673,-3.6681,-3.6668,-3.6621,-3.662,-3.6619,-3.6617,0,-3.6806,-3.6757,-3.6832,-3.6798,-3.6791,-3.6853,-3.6823,-3.6865,-3.6832,-3.6886,-3.6894,-3.6844,-3.6879,-3.6827,-3.6857,-3.6829,-3.6932,-3.6901,-3.6934,-3.6926,-3.7015,-3.7008,-3.731,-3.7346,-3.7053,-3.7056,-3.7058,0,-3.6945,-3.7001,-3.6972,-3.6993,-3.6987,-3.7023,-3.7038,-3.6972,-3.6991,-3.6987,-3.703,-3.7057,-3.7077,-3.7137,-3.7104,-3.7126,-3.7096,-3.72,-3.7099,-3.7117,-3.7099,-3.7097,-3.7102,-3.7222,-3.7225,-3.7228,-3.723,0,-3.7198,-3.717,-3.7194,-3.7211,-3.7231,-3.724,-3.7244,-3.7266,-3.7197,-3.7223,-3.7257,-3.7272,-3.7302,-3.7331,-3.7345,-3.7334,-3.7272,-3.7262,-3.7284,-3.7305,-3.7322,-3.7315,-3.6992,-3.7256,-3.7254,-3.7252,-3.725,-3.7249,-3.7389,-3.7434,-3.742,-3.745,-3.7446,-3.7451,-3.7489,-3.746,-3.7487,-3.7506,-3.7465,-3.751,-3.7501,-3.7512,-3.7509,-3.7544,-3.7498,-3.7529,-3.7537,-3.7546,-3.756,-3.7316,-3.7546,-3.7545,-3.7544,-3.7544,-3.7543,0,-3.7638,-3.7624,-3.7652,-3.766,-3.7683,-3.762,-3.7621,-3.7646,-3.7686,-3.7682,-3.7702,-3.7742,-3.7769,-3.7738,-3.776,-3.7794,-3.7765,-3.7802,-3.7799,-3.7798,-3.7599,-3.7579,-3.7824,-3.7824,-3.7824,-3.7824,-3.7824,-3.7824,-3.777,-3.7842,-3.7813,-3.7883,-3.7868,-3.7911,-3.7917,-3.7922,-3.7918,-3.7966,-3.7988,-3.7967,-3.7952,-3.7972,-3.7995,-3.7985,-3.7997,-3.8044,-3.8025,-3.7839,-3.7812,-3.7786,-3.7766,-3.8047,-3.8048,-3.8221,-3.8222,-3.8224]},{"header":{"parameterUnit":"m.s-1","parameterCategory":1,"la1":30.2991,"la2":30.254,"lo1":-89.0895,"lo2":-89.0444,"dy":0.0017,"dx":0.0017,"nx":28,"ny":28,"refTime":"2023-09-30T03:00:00:Z","depth":0,"parameterNumber":3,"parameterNumberName":"V-component_of_WINDS"},"data":[0,0,0,0,0,0,0,0,0,0,0,0,0,0,0,0,0,0,0,0,0,0,0,0,0,0,0,0,0,0,0,0,0,0,0,0,0,0,0,0,0,0,0,0,0,0,0,0,0,0,0,0,0,0,0,0,0,0,1.1586,1.1585,0,1.1494,1.1492,1.1491,1.1447,1.1447,1.1448,1.1448,1.1347,1.1344,1.1341,0,0,0,0,0,0,0,0,0,0,0,0,0,1.1721,1.1719,1.1586,1.1585,1.1584,1.1494,1.1492,1.1491,1.1447,1.1447,1.1448,1.1448,1.1348,1.1344,1.1341,0,0,0,0,0,0,0,0,0,0,0,0,0,1.1649,1.1718,1.1587,1.1551,1.1547,1.1494,1.1492,1.1491,1.1447,1.1447,1.1448,1.1448,1.1349,1.1345,1.1341,1.1313,0,0,1.1328,1.1326,0,0,0,0,0,0,0,0,1.1653,1.1644,1.1558,1.1554,1.1549,1.1482,1.1503,1.1431,1.1447,1.1485,1.1448,1.1448,1.1391,1.1384,1.1366,1.1308,1.1304,1.1328,1.1325,1.1323,1.1322,0,0,0,0,0,0,0,1.1658,1.1647,1.1549,1.1557,1.1551,1.1539,1.1529,1.1489,1.1439,1.1482,1.1479,1.1468,1.1389,1.137,1.1363,1.1303,1.1328,1.1324,1.1322,1.132,1.1218,1.1218,0,0,0,0,0,0,1.1669,1.1652,1.1552,1.1547,1.1602,1.1536,1.1525,1.1504,1.1439,1.1429,1.1468,1.1467,1.1377,1.1368,1.1359,1.1323,1.1323,1.132,1.1317,1.1219,1.1218,1.1218,0,0,0,0,0,0,1.1672,1.1661,1.1556,1.1598,1.1584,1.1534,1.151,1.1502,1.1483,1.1429,1.1419,1.1459,1.1377,1.1365,1.1326,1.1319,1.1318,1.1314,1.1219,1.1218,1.1218,1.1251,0,0,0,0,0,0,1.1676,1.1662,1.1652,1.1599,1.1582,1.1525,1.151,1.15,1.1476,1.1473,1.1417,1.1408,1.1376,1.1332,1.1322,1.1313,1.1311,1.1219,1.1219,1.1218,1.125,1.1252,1.1253,0,0,0,0,0,1.1681,1.1664,1.1652,1.164,1.1569,1.1525,1.1515,1.1481,1.1476,1.1465,1.1431,1.141,1.1322,1.1328,1.1316,1.1307,1.1219,1.1219,1.1218,1.1249,1.1251,1.1253,0,0,0,0,0,0,1.1716,1.1656,1.1642,1.1607,1.1572,1.1518,1.1503,1.1484,1.1447,1.1445,1.1402,1.139,1.1354,1.1326,1.1334,1.1277,1.1269,1.1266,1.1296,1.1298,1.1299,1.1306,1.1307,0,0,0,0,0,1.172,1.1691,1.1639,1.1613,1.1596,1.1553,1.1532,1.1509,1.147,1.1454,1.1416,1.1378,1.1341,1.1318,1.1282,1.1246,1.1233,1.1234,1.1235,1.1237,1.1234,1.1213,1.1213,1.1216,1.1216,1.1216,0,0,1.1726,1.169,1.1674,1.1619,1.1589,1.1559,1.154,1.1509,1.1485,1.1448,1.1409,1.1381,1.1334,1.1297,1.1278,1.1272,1.1231,1.1236,1.1238,1.1234,1.1213,1.1213,1.1212,1.1216,1.1216,1.1216,0,0,1.1723,1.1694,1.1669,1.164,1.1595,1.1566,1.1561,1.151,1.149,1.1451,1.1423,1.1393,1.1332,1.13,1.1276,1.1263,1.1242,1.1252,1.1259,1.1239,1.1239,1.1239,1.1234,1.1232,1.125,1.125,1.125,0,1.1737,1.1692,1.1658,1.1628,1.1605,1.1573,1.1546,1.1519,1.1464,1.1448,1.1443,1.1366,1.1332,1.1287,1.1284,1.1266,1.1257,1.1258,1.1242,1.1242,1.1241,1.1235,1.1233,1.1252,1.1251,1.1251,1.1251,0,1.171,1.1679,1.1664,1.1615,1.1589,1.1562,1.1523,1.1501,1.148,1.1452,1.1412,1.1371,1.1326,1.1314,1.1292,1.1265,1.1263,1.1251,1.1241,1.1242,1.1237,1.1234,1.1254,1.1253,1.1253,1.1252,0,0,1.1724,1.1658,1.1653,1.1631,1.158,1.1554,1.1525,1.1483,1.1465,1.1429,1.1402,1.1352,1.1341,1.1314,1.1288,1.1271,1.1263,1.1261,1.1259,1.1262,1.1231,1.124,1.1239,1.125,1.1249,1.1249,1.1235,0,1.1714,1.1662,1.1631,1.1591,1.1562,1.1532,1.1506,1.1472,1.1445,1.1415,1.1384,1.1349,1.1337,1.132,1.1302,1.1268,1.1256,1.1269,1.1223,1.1222,1.1235,1.1236,1.1245,1.1233,1.1232,1.1232,1.1232,0,1.1694,1.1661,1.1619,1.1572,1.1559,1.1537,1.1496,1.1469,1.1428,1.141,1.1381,1.1356,1.1323,1.1317,1.127,1.1279,1.1259,1.124,1.1238,1.1232,1.1226,1.1228,1.1229,1.1227,1.1228,1.1228,1.1228,0,1.1709,1.1653,1.1621,1.1602,1.1547,1.1532,1.1509,1.1469,1.1446,1.141,1.1395,1.1355,1.1333,1.1302,1.1267,1.1266,1.1223,1.1215,1.1206,1.1207,1.1197,1.1198,1.1194,1.1185,1.1185,1.1185,1.1185,0,1.17,1.1675,1.1627,1.1607,1.1578,1.1543,1.1514,1.1488,1.1453,1.1426,1.1397,1.1372,1.1328,1.1297,1.1269,1.1234,1.1225,1.1208,1.12,1.121,1.1212,1.1195,1.1194,1.1185,1.1185,1.1185,1.1185,0,1.171,1.1677,1.164,1.1592,1.1579,1.156,1.1518,1.1497,1.1469,1.1436,1.1426,1.1382,1.1344,1.1307,1.1255,1.1237,1.1202,1.1193,1.1216,1.1212,1.1205,1.1206,1.1189,1.1185,1.1181,1.1181,1.1181,0,1.1706,1.1687,1.1637,1.1619,1.1596,1.1566,1.1543,1.1508,1.1485,1.1439,1.1423,1.1384,1.1351,1.1292,1.1254,1.1215,1.1204,1.1201,1.1198,1.1208,1.1203,1.1205,1.1202,1.1202,1.1202,1.1202,1.1202,0,1.1702,1.1687,1.1657,1.1621,1.1595,1.1564,1.1533,1.1518,1.1476,1.1452,1.1415,1.139,1.1339,1.13,1.1257,1.123,1.1209,1.1204,1.12,1.1209,1.1223,1.1215,1.1219,1.1204,1.1204,1.1204,1.1204,1.1204,1.1705,1.1686,1.1649,1.1616,1.1589,1.1561,1.1539,1.1509,1.1478,1.1436,1.1416,1.1379,1.1339,1.1279,1.1254,1.1223,1.1217,1.1211,1.1209,1.1208,1.121,1.1229,1.1215,1.1215,1.1214,1.1214,1.1214,0,1.1699,1.1674,1.1645,1.1602,1.1576,1.1561,1.1525,1.1504,1.1472,1.1438,1.1407,1.1364,1.1327,1.1287,1.1247,1.123,1.1219,1.1221,1.1221,1.1215,1.1218,1.1225,1.123,1.123,1.123,1.123,1.123,1.123,1.1693,1.1661,1.1642,1.1596,1.1571,1.1536,1.1517,1.149,1.1463,1.1417,1.1387,1.1362,1.1326,1.1283,1.1248,1.1237,1.1223,1.1227,1.1214,1.1216,1.1215,1.1214,1.1221,1.1225,1.1225,1.1214,1.1214,1.1214]}]]